Location: Unspecified
(38.0989°N, 0.6729°W)
Time: 11:26:31
(UTC+02:00)

Envisat - Pass Details

Date: 29 January 2022
Orbit: 764 x 765 km, 98.2° (Epoch: 22 May)

Event Time Altitude Azimuth Distance (km) Brightness Sun altitude
Rises 05:08:09 0° 24° (NNE) 3,236 6.6 -35.9°
Reaches altitude 10° 05:10:43 10° 35° (NE) 2,306 5.8 -35.4°
Maximum altitude 05:15:11 31° 96° (E) 1,332 4.7 -34.5°
Drops below altitude 10° 05:19:37 10° 158° (SSE) 2,293 5.6 -33.6°
Sets 05:22:10 0° 168° (SSE) 3,215 6.3 -33.1°
